Back to catalog

COSMOS 970 DEB

AliveLEO
NORAD 64984·DEBRIS·🇷🇺 Russia

Launched Dec 21, 1977 from Baikonur Cosmodrome

Loading…

Next Passes (next 24 hours)

TLE

FreshSource: Space-Track

Epoch: Sep 14, 2026, 14:07 UTC

1 64984U 77121CV  26257.58877736  .00000023  00000-0  12249-3 0  9998
2 64984  65.8263 219.1002 0128410 236.9398 121.9273 13.62788492336337

Track COSMOS 970 DEB in real time with AllMySat

Download on the App Store